TimeCDT,TemperatureF,Dew PointF,Humidity,Sea Level PressureIn,VisibilityMPH,Wind Direction,Wind SpeedMPH,Gust SpeedMPH,PrecipitationIn,Events,Conditions,WindDirDegrees,DateUTC
12:53 AM,55.9,53.1,90,29.85,10.0,Calm,Calm,-,N/A,,Clear,0,2013-09-22 05:53:00
1:53 AM,55.0,53.1,93,29.85,10.0,North,3.5,-,N/A,,Clear,360,2013-09-22 06:53:00
2:53 AM,54.0,52.0,93,29.85,10.0,NNW,4.6,-,N/A,,Clear,340,2013-09-22 07:53:00
3:53 AM,53.1,51.1,93,29.85,8.0,NW,4.6,-,N/A,,Clear,320,2013-09-22 08:53:00
4:53 AM,52.0,51.1,97,29.85,7.0,NW,3.5,-,N/A,,Clear,320,2013-09-22 09:53:00
5:53 AM,52.0,51.1,97,29.87,8.0,NNW,4.6,-,N/A,,Partly Cloudy,340,2013-09-22 10:53:00
6:53 AM,53.1,52.0,96,29.88,10.0,North,4.6,-,N/A,,Partly Cloudy,350,2013-09-22 11:53:00
7:53 AM,59.0,55.0,87,29.89,10.0,North,6.9,-,N/A,,Partly Cloudy,10,2013-09-22 12:53:00
8:53 AM,64.0,55.0,73,29.90,10.0,NNE,9.2,-,N/A,,Partly Cloudy,30,2013-09-22 13:53:00
9:53 AM,68.0,53.1,59,29.91,10.0,NNE,11.5,18.4,N/A,,Clear,20,2013-09-22 14:53:00
10:53 AM,72.0,52.0,49,29.90,10.0,NE,15.0,-,N/A,,Partly Cloudy,40,2013-09-22 15:53:00
11:53 AM,73.9,52.0,46,29.89,10.0,NNE,11.5,17.3,N/A,,Partly Cloudy,20,2013-09-22 16:53:00
12:53 PM,75.9,52.0,43,29.89,10.0,NNE,13.8,19.6,N/A,,Partly Cloudy,20,2013-09-22 17:53:00
1:53 PM,77.0,52.0,42,29.87,10.0,North,10.4,-,N/A,,Partly Cloudy,10,2013-09-22 18:53:00
2:53 PM,78.1,52.0,40,29.86,10.0,NNE,11.5,-,N/A,,Partly Cloudy,30,2013-09-22 19:53:00
3:53 PM,78.1,52.0,40,29.85,10.0,ENE,8.1,16.1,N/A,,Partly Cloudy,70,2013-09-22 20:53:00
4:53 PM,77.0,52.0,42,29.85,10.0,NE,9.2,-,N/A,,Clear,50,2013-09-22 21:53:00
5:53 PM,75.0,52.0,44,29.85,10.0,NE,9.2,-,N/A,,Clear,40,2013-09-22 22:53:00
6:53 PM,69.1,54.0,58,29.85,10.0,NNE,6.9,-,N/A,,Clear,30,2013-09-22 23:53:00
7:53 PM,64.9,55.9,73,29.87,10.0,NNE,8.1,-,N/A,,Clear,20,2013-09-23 00:53:00
8:53 PM,66.0,54.0,65,29.88,10.0,NE,6.9,-,N/A,,Clear,40,2013-09-23 01:53:00
9:53 PM,64.9,54.0,68,29.89,10.0,NE,6.9,-,N/A,,Clear,50,2013-09-23 02:53:00
10:53 PM,64.0,54.0,70,29.91,10.0,ENE,8.1,-,N/A,,Clear,60,2013-09-23 03:53:00
11:53 PM,63.0,54.0,72,29.90,10.0,ENE,6.9,-,N/A,,Clear,70,2013-09-23 04:53:00